FW3143 Weather Reports


Display with metric or nautical units.
time (UTC)temp
F
wind
direction
speed
MPH
gust
MPH
rain 1hr
in
rain 24hr
in
rain mn
in
humidity
%
barometer
mb
20260504205006 56 335 17.0 22.0 0.00 0.00 0.00 78 1011.8
20260504204531 56 335 15.0 22.0 0.00 0.00 0.00 77 1011.9
20260504204010 56 335 15.0 21.0 0.00 0.00 0.00 77 1011.9
20260504203507 56 335 14.0 21.0 0.00 0.00 0.00 77 1011.9
20260504203029 56 335 15.0 22.0 0.00 0.00 0.00 77 1012.0
20260504202513 56 146 14.0 22.0 0.00 0.00 0.00 77 1011.9
20260504202010 56 335 16.0 22.0 0.00 0.00 0.00 77 1012.0
20260504201518 56 125 17.0 22.0 0.00 0.00 0.00 77 1012.0
20260504201004 56 335 17.0 21.0 0.00 0.00 0.00 77 1012.1
20260504200504 56 128 16.0 21.0 0.00 0.00 0.00 77 1012.1
20260504200008 56 335 16.0 21.0 0.00 0.00 0.00 77 1012.1
20260504195503 56 335 16.0 20.0 0.00 0.00 0.00 77 1012.2
20260504195004 56 119 15.0 20.0 0.00 0.00 0.00 77 1012.2
20260504194508 57 335 15.0 20.0 0.00 0.00 0.00 77 1012.3
20260504194005 57 335 15.0 19.0 0.00 0.00 0.00 76 1012.4
20260504193505 57 123 14.0 19.0 0.00 0.00 0.00 77 1012.4
20260504193010 57 123 15.0 20.0 0.00 0.00 0.00 76 1012.4
20260504192505 57 128 15.0 20.0 0.00 0.00 0.00 76 1012.4
20260504192004 57 115 15.0 19.0 0.00 0.00 0.00 76 1012.5
20260504191514 57 107 15.0 20.0 0.00 0.00 0.00 76 1012.6
20260504191003 57 335 15.0 20.0 0.00 0.00 0.00 76 1012.8
20260504190503 57 335 15.0 22.0 0.00 0.00 0.00 75 1012.8
20260504190012 57 136 16.0 22.0 0.00 0.00 0.00 75 1012.8
20260504185503 57 113 16.0 22.0 0.00 0.00 0.00 74 1012.8
20260504185004 57 136 15.0 22.0 0.00 0.00 0.00 74 1012.9
20260504184514 57 335 15.0 23.0 0.00 0.00 0.00 74 1012.9
20260504184004 57 147 17.0 23.0 0.00 0.00 0.00 74 1013.0
20260504183505 57 335 15.0 22.0 0.00 0.00 0.00 75 1013.0
20260504183014 57 153 16.0 22.0 0.00 0.00 0.00 75 1013.0
20260504182505 57 335 13.0 21.0 0.00 0.00 0.00 75 1013.1
20260504182007 57 149 15.0 22.0 0.00 0.00 0.00 75 1013.1
20260504181515 57 335 14.0 22.0 0.00 0.00 0.00 75 1013.1
20260504181004 57 335 14.0 21.0 0.00 0.00 0.00 75 1013.1
20260504180506 57 335 14.0 23.0 0.00 0.00 0.00 75 1013.2
20260504180016 57 153 16.0 23.0 0.00 0.00 0.00 75 1013.2
20260504175503 57 335 16.0 21.0 0.00 0.00 0.00 75 1013.3
20260504175006 57 132 14.0 23.0 0.00 0.00 0.00 76 1013.3
20260504174514 56 335 16.0 23.0 0.00 0.00 0.00 76 1013.3
20260504174006 56 134 17.0 23.0 0.00 0.00 0.00 77 1013.4
20260504173506 56 335 16.0 23.0 0.00 0.00 0.00 77 1013.4
20260504173015 56 152 17.0 25.0 0.00 0.00 0.00 77 1013.4
20260504172505 56 335 18.0 25.0 0.00 0.00 0.00 77 1013.5
20260504172006 56 335 18.0 24.0 0.00 0.00 0.00 77 1013.5
20260504171516 56 335 18.0 24.0 0.00 0.00 0.00 77 1013.5
20260504171004 57 335 16.0 22.0 0.00 0.00 0.00 77 1013.6
20260504170503 56 335 16.0 22.0 0.00 0.00 0.00 77 1013.7
20260504151004 55 152 10.0 16.0 0.00 0.00 0.00 77 1015.1
20260504150510 55 151 10.0 14.0 0.00 0.00 0.00 77 1015.2
20260504141007 54 158 9.0 15.0 0.00 0.00 0.00 77 1015.5
20260504140505 54 147 9.0 15.0 0.00 0.00 0.00 76 1015.5
20260504130504 55 184 7.0 13.0 0.00 0.00 0.00 73 1015.8
20260504110505 50 164 9.0 16.0 0.00 0.00 0.00 75 1016.0
20260504100508 50 173 12.0 19.0 0.00 0.00 0.00 75 1015.7
20260504081538 50 178 8.0 12.0 0.00 0.00 0.00 74 1015.1
20260504081002 50 177 8.0 12.0 0.00 0.00 0.00 73 1015.1
20260504080503 50 182 8.0 11.0 0.00 0.00 0.00 72 1015.0
20260504050504 51 198 6.0 13.0 0.00 0.00 0.00 73 1014.3
20260504050020 51 180 6.0 13.0 0.00 0.00 0.00 73 1014.3
20260504045507 51 335 7.0 12.0 0.00 0.00 0.00 72 1014.3
20260504045009 51 169 6.0 12.0 0.00 0.00 0.00 72 1014.2
20260504044524 51 335 6.0 13.0 0.00 0.00 0.00 72 1014.2
20260504044007 51 188 7.0 13.0 0.00 0.00 0.00 72 1014.2
20260504043503 51 180 7.0 12.0 0.00 0.00 0.00 73 1014.2
20260504043031 51 188 7.0 12.0 0.00 0.00 0.00 73 1014.1
20260504042507 51 184 7.0 12.0 0.00 0.00 0.00 74 1014.2
20260504042009 51 186 6.0 12.0 0.00 0.00 0.00 74 1014.2
20260504041524 51 184 7.0 12.0 0.00 0.00 0.00 74 1014.1
20260504041013 51 196 6.0 11.0 0.00 0.00 0.00 74 1014.1
20260504040513 51 196 7.0 11.0 0.00 0.00 0.00 74 1014.0
20260504040028 51 335 6.0 11.0 0.00 0.00 0.00 74 1014.0
20260504035504 51 182 6.0 11.0 0.00 0.00 0.00 73 1014.0
20260504035004 51 190 6.0 11.0 0.00 0.00 0.00 73 1014.0
20260504034519 51 177 7.0 12.0 0.00 0.00 0.00 73 1014.0
20260504034004 51 176 7.0 12.0 0.00 0.00 0.00 73 1014.0
20260504033504 51 175 6.0 12.0 0.00 0.00 0.00 72 1013.9
20260504033023 51 183 6.0 12.0 0.00 0.00 0.00 72 1013.9
20260504032509 51 200 4.0 10.0 0.00 0.00 0.00 72 1013.8
20260504032013 51 335 4.0 9.0 0.00 0.00 0.00 72 1013.9
20260504031531 51 204 4.0 8.0 0.00 0.00 0.00 72 1013.9
20260504031005 51 202 3.0 10.0 0.00 0.00 0.00 73 1013.9
20260504030503 51 335 5.0 11.0 0.00 0.00 0.00 73 1013.9
20260504030026 51 335 4.0 13.0 0.00 0.00 0.00 73 1013.9
20260504025508 51 183 6.0 13.0 0.00 0.00 0.00 73 1014.0
20260504025006 51 164 8.0 12.0 0.00 0.00 0.00 73 1014.0
20260504024530 51 176 7.0 11.0 0.00 0.00 0.00 73 1013.9
20260504024008 52 335 6.0 11.0 0.00 0.00 0.00 72 1013.9
20260504023508 52 175 7.0 10.0 0.00 0.00 0.00 72 1013.9
20260504023014 52 184 6.0 10.0 0.00 0.00 0.00 72 1013.9
20260504022506 52 189 5.0 10.0 0.00 0.00 0.00 72 1013.9
20260504022007 52 173 5.0 9.0 0.00 0.00 0.00 71 1013.9
20260504021524 52 190 4.0 10.0 0.00 0.00 0.00 70 1013.9
20260504021007 52 196 5.0 10.0 0.00 0.00 0.00 70 1013.9
20260504020508 52 204 5.0 10.0 0.00 0.00 0.00 71 1013.9
20260504020028 52 204 6.0 10.0 0.00 0.00 0.00 72 1013.8
20260504015507 52 184 6.0 10.0 0.00 0.00 0.00 73 1013.9
20260504015011 52 163 5.0 10.0 0.00 0.00 0.00 71 1013.8
20260504014524 52 181 5.0 9.0 0.00 0.00 0.00 70 1013.8
20260504014007 53 203 4.0 9.0 0.00 0.00 0.00 67 1013.7
20260504013507 53 198 5.0 11.0 0.00 0.00 0.00 64 1013.7
20260504013034 53 189 6.0 11.0 0.00 0.00 0.00 66 1013.7
20260504012508 53 194 5.0 10.0 0.00 0.00 0.00 63 1013.6
20260504012009 53 195 4.0 9.0 0.00 0.00 0.00 64 1013.6
20260504011528 53 202 4.0 10.0 0.00 0.00 0.00 63 1013.5
20260504011010 54 190 5.0 10.0 0.00 0.00 0.00 61 1013.5
20260504010508 54 191 5.0 10.0 0.00 0.00 0.00 59 1013.4
20260504010021 54 335 4.0 9.0 0.00 0.00 0.00 58 1013.3
20260504005510 54 200 4.0 10.0 0.00 0.00 0.00 54 1013.2
20260504005011 55 197 5.0 10.0 0.00 0.00 0.00 53 1013.2
20260504004532 55 178 5.0 8.0 0.00 0.00 0.00 50 1013.2
20260504004008 55 216 3.0 6.0 0.00 0.00 0.00 43 1013.1
20260504003508 55 335 3.0 7.0 0.00 0.00 0.00 44 1013.0
20260504003029 56 335 4.0 7.0 0.00 0.00 0.00 45 1012.9
20260504002510 56 229 3.0 7.0 0.00 0.00 0.00 45 1012.8
20260504002007 56 229 4.0 8.0 0.00 0.00 0.00 42 1012.7
20260504001524 56 335 5.0 9.0 0.00 0.00 0.00 41 1012.5
20260504001008 57 335 5.0 9.0 0.00 0.00 0.00 41 1012.5
20260504000510 57 335 4.0 10.0 0.00 0.00 0.00 40 1012.5
20260504000027 57 240 5.0 10.0 0.00 0.00 0.00 39 1012.5
20260503235510 58 335 4.0 12.0 0.00 0.00 0.00 39 1012.4
20260503235010 58 335 4.0 14.0 0.00 0.00 0.00 36 1012.4
20260503234528 58 288 8.0 14.0 0.00 0.00 0.00 35 1012.3
20260503234009 58 335 7.0 13.0 0.00 0.00 0.00 36 1012.2
20260503233507 59 335 9.0 18.0 0.00 0.00 0.00 35 1012.2
20260503233026 59 246 7.0 18.0 0.00 0.00 0.00 35 1012.1
20260503232509 59 271 10.0 18.0 0.00 0.00 0.00 35 1012.0
20260503232012 59 335 8.0 15.0 0.00 0.00 0.00 34 1012.0
20260503231529 60 254 9.0 15.0 0.00 0.00 0.00 31 1012.0
20260503231006 60 335 7.0 14.0 0.00 0.00 0.00 33 1011.9
20260503230509 60 274 9.0 20.0 0.00 0.00 0.00 32 1011.9
20260503230020 60 257 9.0 20.0 0.00 0.00 0.00 31 1011.9
20260503225503 60 255 13.0 19.0 0.00 0.00 0.00 31 1011.9
20260503225003 60 335 12.0 19.0 0.00 0.00 0.00 32 1011.7
20260503224504 60 335 9.0 22.0 0.00 0.00 0.00 32 1011.6
20260503224003 60 258 8.0 22.0 0.00 0.00 0.00 32 1011.6
20260503223504 60 246 14.0 20.0 0.00 0.00 0.00 30 1011.6
20260503223013 60 260 12.0 22.0 0.00 0.00 0.00 31 1011.6
20260503222506 60 335 14.0 23.0 0.00 0.00 0.00 30 1011.6
20260503222008 61 234 12.0 23.0 0.00 0.00 0.00 30 1011.7
20260503221505 61 261 11.0 19.0 0.00 0.00 0.00 31 1011.5
20260503221005 61 335 8.0 19.0 0.00 0.00 0.00 33 1011.5
20260503220503 61 335 12.0 19.0 0.00 0.00 0.00 31 1011.5
20260503220007 60 335 10.0 26.0 0.00 0.00 0.00 31 1011.5
20260503215503 60 335 15.0 27.0 0.00 0.00 0.00 30 1011.5
20260503215006 60 335 16.0 27.0 0.00 0.00 0.00 32 1011.5
20260503214519 60 250 14.0 23.0 0.00 0.00 0.00 32 1011.5
20260503214005 61 335 10.0 21.0 0.00 0.00 0.00 32 1011.4
20260503213505 60 335 12.0 21.0 0.00 0.00 0.00 32 1011.4
20260503213007 60 300 12.0 21.0 0.00 0.00 0.00 31 1011.2
20260503212503 61 335 13.0 21.0 0.00 0.00 0.00 34 1011.3
20260503212004 60 268 12.0 19.0 0.00 0.00 0.00 32 1011.3
20260503211511 60 335 11.0 24.0 0.00 0.00 0.00 32 1011.3
20260503211003 60 251 14.0 24.0 0.00 0.00 0.00 31 1011.2
20260503210506 60 335 14.0 24.0 0.00 0.00 0.00 32 1011.2
20260503210020 60 253 13.0 22.0 0.00 0.00 0.00 31 1011.2
20260503205509 60 220 11.0 20.0 0.00 0.00 0.00 31 1011.2